Location: *
(32.8140°S, 174.6161°E)
Time: 15:07:33
(UTC+00:00)

CZ-2C R/B - Pass Details

Date: 10 December 2019
Orbit: 502 x 568 km, 97.7° (Epoch: 23 January)

Event Time Altitude Azimuth Distance (km) Brightness Sun altitude
Exits shadow 14:19:00 29° 89° (E) 1,018 4.4 -26.8°
Maximum altitude 14:19:36 31° 107° (ESE) 983 4.4 -26.8°
Drops below altitude 10° 14:23:05 10° 169° (S) 1,820 6.3 -26.4°
Sets 14:25:21 0° 179° (S) 2,708 7.2 -26.1°
